BCS107 EGNX-EDDP

Flight info

Callsign BCS107
Flight time 1h 23m
Altitude 33000
Route SAPCO UY53 DTY P166 BANTO P155 SIVDA P137 REDFA DCT TACHA DCT BATEL DCT LEGDA DCT DIBDO Z20 KENIG T959 KOJEC KOJEC1V
Aircraft B763/H-SDE3FGHIM3RWXY/LB1

Departure

Time 2026-05-06 09:37
Airport East Midlands Airport (EGNX)

Arrival

Time 2026-05-06 11:00
Airport Leipzig/Halle Airport (EDDP)
Time Latitude Longitude Altitude Speed Heading
2026-05-06 09:13 52.82817 -1.31976 282 ft 0 kts 180°
2026-05-06 09:28 52.82826 -1.31976 282 ft 2 kts 181°
2026-05-06 09:28 52.82841 -1.31974 283 ft 2 kts 194°
2026-05-06 09:29 52.82855 -1.31965 283 ft 2 kts 211°
2026-05-06 09:29 52.82867 -1.31950 284 ft 2 kts 227°
2026-05-06 09:29 52.82875 -1.31931 284 ft 2 kts 243°
2026-05-06 09:29 52.82880 -1.31909 284 ft 2 kts 259°
2026-05-06 09:30 52.82881 -1.31894 284 ft 1 kts 269°
2026-05-06 09:30 52.82881 -1.31890 284 ft 0 kts 269°
2026-05-06 09:31 52.82881 -1.31897 284 ft 2 kts 269°
2026-05-06 09:31 52.82880 -1.31960 284 ft 8 kts 269°
2026-05-06 09:31 52.82879 -1.32083 286 ft 12 kts 270°
2026-05-06 09:32 52.82927 -1.32184 290 ft 11 kts 316°
2026-05-06 09:32 52.82943 -1.32309 291 ft 12 kts 266°
2026-05-06 09:32 52.82937 -1.32469 293 ft 16 kts 268°
2026-05-06 09:32 52.82933 -1.32689 295 ft 21 kts 269°
2026-05-06 09:33 52.82930 -1.32959 297 ft 25 kts 269°
2026-05-06 09:33 52.82922 -1.33267 303 ft 27 kts 269°
2026-05-06 09:33 52.82918 -1.33565 308 ft 25 kts 269°
2026-05-06 09:33 52.82913 -1.33850 307 ft 24 kts 269°
2026-05-06 09:34 52.82906 -1.34123 307 ft 23 kts 268°
2026-05-06 09:34 52.82906 -1.34375 311 ft 20 kts 271°
2026-05-06 09:34 52.82905 -1.34606 313 ft 18 kts 268°
2026-05-06 09:34 52.82901 -1.34807 314 ft 17 kts 268°
2026-05-06 09:35 52.82962 -1.34930 313 ft 15 kts 351°
2026-05-06 09:35 52.83046 -1.34930 315 ft 4 kts 13°
2026-05-06 09:35 52.83061 -1.34909 316 ft 1 kts 61°
2026-05-06 09:35 52.83063 -1.34885 316 ft 0 kts 89°
2026-05-06 09:36 52.83069 -1.34598 314 ft 56 kts 89°
2026-05-06 09:36 52.83087 -1.33594 311 ft 117 kts 89°
2026-05-06 09:37 52.83120 -1.31928 354 ft 166 kts 86°
2026-05-06 09:37 52.83135 -1.29991 918 ft 178 kts 94°
2026-05-06 09:37 52.82992 -1.27917 1689 ft 185 kts 92°
2026-05-06 09:37 52.82863 -1.25813 2397 ft 190 kts 92°
2026-05-06 09:38 52.82359 -1.23677 2769 ft 214 kts 122°
2026-05-06 09:38 52.81407 -1.21681 3242 ft 228 kts 125°
2026-05-06 09:38 52.80358 -1.19613 3690 ft 248 kts 127°
2026-05-06 09:38 52.79081 -1.17580 4213 ft 268 kts 146°
2026-05-06 09:39 52.77280 -1.16607 4927 ft 282 kts 178°
2026-05-06 09:39 52.75364 -1.17145 5758 ft 286 kts 203°
2026-05-06 09:39 52.73599 -1.18581 6639 ft 288 kts 211°
2026-05-06 09:39 52.71896 -1.20301 7537 ft 289 kts 215°
2026-05-06 09:40 52.70253 -1.22149 8405 ft 291 kts 217°
2026-05-06 09:40 52.68624 -1.24105 9275 ft 292 kts 219°
2026-05-06 09:40 52.65395 -1.28158 10925 ft 297 kts 220°
2026-05-06 09:41 52.63712 -1.30099 11662 ft 303 kts 207°
2026-05-06 09:41 52.61643 -1.31106 12051 ft 324 kts 187°
2026-05-06 09:41 52.59336 -1.30941 12462 ft 342 kts 168°
2026-05-06 09:41 52.57084 -1.29549 13117 ft 352 kts 149°
2026-05-06 09:42 52.55169 -1.27114 13904 ft 356 kts 133°
2026-05-06 09:42 52.53699 -1.23807 14659 ft 360 kts 116°
2026-05-06 09:42 52.52831 -1.20007 15418 ft 362 kts 104°
2026-05-06 09:42 52.52183 -1.15988 16141 ft 367 kts 105°
2026-05-06 09:43 52.51508 -1.11993 16879 ft 370 kts 105°
2026-05-06 09:43 52.50814 -1.07923 17585 ft 374 kts 105°
2026-05-06 09:43 52.50101 -1.03791 18294 ft 378 kts 105°
2026-05-06 09:43 52.49381 -0.99640 18971 ft 382 kts 106°
2026-05-06 09:44 52.48650 -0.95450 19637 ft 386 kts 106°
2026-05-06 09:44 52.47916 -0.91255 20287 ft 389 kts 106°
2026-05-06 09:44 52.47169 -0.86997 20929 ft 393 kts 106°
2026-05-06 09:44 52.46414 -0.82705 21568 ft 396 kts 106°
2026-05-06 09:45 52.45649 -0.78369 22173 ft 399 kts 107°
2026-05-06 09:45 52.44879 -0.74016 22779 ft 403 kts 107°
2026-05-06 09:45 52.44098 -0.69609 23372 ft 406 kts 107°
2026-05-06 09:45 52.43311 -0.65185 23956 ft 409 kts 107°
2026-05-06 09:46 52.42509 -0.60684 24525 ft 413 kts 107°
2026-05-06 09:46 52.41700 -0.56157 25092 ft 416 kts 107°
2026-05-06 09:46 52.40886 -0.51610 25656 ft 419 kts 107°
2026-05-06 09:46 52.40072 -0.47074 26205 ft 422 kts 107°
2026-05-06 09:47 52.39247 -0.42489 26721 ft 425 kts 107°
2026-05-06 09:47 52.38401 -0.37805 27015 ft 434 kts 107°
2026-05-06 09:47 52.37643 -0.32994 27185 ft 438 kts 100°
2026-05-06 09:47 52.37335 -0.28082 27994 ft 433 kts 96°
2026-05-06 09:48 52.37031 -0.23231 28479 ft 437 kts 97°
2026-05-06 09:48 52.36679 -0.18327 28971 ft 439 kts 98°
2026-05-06 09:48 52.36297 -0.13355 29476 ft 442 kts 98°
2026-05-06 09:48 52.35898 -0.08368 29937 ft 445 kts 98°
2026-05-06 09:49 52.35484 -0.03309 30410 ft 448 kts 98°
2026-05-06 09:49 52.35064 0.01733 30846 ft 451 kts 98°
2026-05-06 09:49 52.34636 0.06805 31281 ft 453 kts 98°
2026-05-06 09:49 52.34204 0.11896 31647 ft 457 kts 98°
2026-05-06 09:50 52.33764 0.17037 32067 ft 459 kts 98°
2026-05-06 09:50 52.33322 0.22169 32583 ft 458 kts 98°
2026-05-06 09:50 52.32877 0.27306 32982 ft 457 kts 98°
2026-05-06 09:50 52.32428 0.32457 32954 ft 456 kts 98°
2026-05-06 09:51 52.31541 0.42561 32971 ft 452 kts 98°
2026-05-06 09:51 52.30644 0.52681 32971 ft 453 kts 98°
2026-05-06 09:52 52.29728 0.62898 32970 ft 453 kts 98°
2026-05-06 09:52 52.28815 0.72991 32963 ft 453 kts 99°
2026-05-06 09:53 52.27873 0.83289 32968 ft 465 kts 99°
2026-05-06 09:53 52.26901 0.93815 32961 ft 480 kts 99°
2026-05-06 09:54 52.25886 1.04702 32958 ft 493 kts 99°
2026-05-06 09:54 52.24848 1.15714 32952 ft 493 kts 99°
2026-05-06 09:55 52.23797 1.26752 32950 ft 491 kts 99°
2026-05-06 09:55 52.22744 1.37697 32943 ft 491 kts 99°
2026-05-06 09:56 52.21681 1.48641 32946 ft 492 kts 99°
2026-05-06 09:56 52.20609 1.59574 32947 ft 491 kts 99°
2026-05-06 09:57 52.19519 1.70565 32935 ft 491 kts 100°
2026-05-06 09:57 52.18425 1.81494 32938 ft 490 kts 100°
2026-05-06 09:58 52.17324 1.92397 32927 ft 490 kts 100°
2026-05-06 09:58 52.16213 2.03289 32930 ft 490 kts 100°
2026-05-06 09:59 52.15096 2.14135 32925 ft 489 kts 100°
2026-05-06 09:59 52.13959 2.25063 32924 ft 489 kts 100°
2026-05-06 10:00 52.12819 2.35927 32918 ft 488 kts 100°
2026-05-06 10:00 52.12005 2.46805 32931 ft 488 kts 89°
2026-05-06 10:01 52.13072 2.57622 32932 ft 490 kts 72°
2026-05-06 10:01 52.15128 2.68154 32912 ft 490 kts 73°
2026-05-06 10:02 52.17135 2.78666 32913 ft 490 kts 73°
2026-05-06 10:02 52.19132 2.89242 32910 ft 490 kts 74°
2026-05-06 10:03 52.21114 2.99823 32906 ft 490 kts 74°
2026-05-06 10:03 52.23084 3.10410 32908 ft 490 kts 74°
2026-05-06 10:04 52.25036 3.20999 32904 ft 489 kts 75°
2026-05-06 10:04 52.26108 3.31886 32911 ft 488 kts 84°
2026-05-06 10:05 52.26898 3.42786 32901 ft 486 kts 84°
2026-05-06 10:05 52.27660 3.53731 32910 ft 486 kts 84°
2026-05-06 10:06 52.28405 3.64696 32906 ft 487 kts 84°
2026-05-06 10:06 52.29136 3.75631 32895 ft 485 kts 85°
2026-05-06 10:07 52.29853 3.86558 32896 ft 487 kts 85°
2026-05-06 10:07 52.30562 3.97501 32893 ft 487 kts 85°
2026-05-06 10:08 52.31261 4.08453 32899 ft 486 kts 85°
2026-05-06 10:08 52.31946 4.19352 32893 ft 486 kts 85°
2026-05-06 10:09 52.32622 4.30260 32894 ft 485 kts 85°
2026-05-06 10:09 52.33292 4.41246 32892 ft 485 kts 85°
2026-05-06 10:10 52.33943 4.52097 32889 ft 483 kts 85°
2026-05-06 10:10 52.34586 4.62989 32884 ft 483 kts 85°
2026-05-06 10:11 52.35221 4.73900 32886 ft 483 kts 86°
2026-05-06 10:11 52.35840 4.84722 32879 ft 481 kts 86°
2026-05-06 10:12 52.36454 4.95625 32883 ft 482 kts 86°
2026-05-06 10:12 52.37054 5.06474 32881 ft 481 kts 86°
2026-05-06 10:13 52.37645 5.17310 32873 ft 481 kts 86°
2026-05-06 10:13 52.38224 5.28134 32874 ft 480 kts 86°
2026-05-06 10:14 52.38796 5.39026 32866 ft 480 kts 86°
2026-05-06 10:14 52.39351 5.49785 32867 ft 478 kts 86°
2026-05-06 10:15 52.39902 5.60631 32867 ft 478 kts 86°
2026-05-06 10:15 52.40439 5.71430 32859 ft 476 kts 87°
2026-05-06 10:16 52.40962 5.82113 32858 ft 475 kts 87°
2026-05-06 10:16 52.41476 5.92854 32853 ft 475 kts 87°
2026-05-06 10:17 52.41979 6.03538 32853 ft 473 kts 87°
2026-05-06 10:17 52.42475 6.14291 32851 ft 474 kts 87°
2026-05-06 10:18 52.42961 6.25035 32850 ft 474 kts 87°
2026-05-06 10:18 52.43434 6.35709 32851 ft 474 kts 87°
2026-05-06 10:19 52.43900 6.46464 32846 ft 474 kts 87°
2026-05-06 10:19 52.44356 6.57197 32846 ft 474 kts 87°
2026-05-06 10:20 52.44803 6.67947 32845 ft 475 kts 88°
2026-05-06 10:20 52.45238 6.78653 32841 ft 474 kts 88°
2026-05-06 10:21 52.45665 6.89397 32836 ft 474 kts 88°
2026-05-06 10:21 52.46083 7.00168 32835 ft 474 kts 88°
2026-05-06 10:22 52.46487 7.10932 32831 ft 474 kts 89°
2026-05-06 10:22 52.45810 7.21468 32839 ft 468 kts 107°
2026-05-06 10:23 52.43219 7.31154 32836 ft 464 kts 117°
2026-05-06 10:23 52.40686 7.40833 32819 ft 466 kts 111°
2026-05-06 10:24 52.38482 7.50744 32812 ft 466 kts 109°
2026-05-06 10:24 52.36402 7.60728 32808 ft 466 kts 109°
2026-05-06 10:25 52.34366 7.70771 32809 ft 469 kts 109°
2026-05-06 10:25 52.32318 7.80951 32802 ft 475 kts 109°
2026-05-06 10:26 52.30264 7.91161 32787 ft 474 kts 109°
2026-05-06 10:26 52.28215 8.01321 32788 ft 473 kts 109°
2026-05-06 10:27 52.26158 8.11471 32798 ft 473 kts 109°
2026-05-06 10:27 52.24088 8.21632 32785 ft 473 kts 109°
2026-05-06 10:28 52.22022 8.31727 32779 ft 472 kts 109°
2026-05-06 10:28 52.19947 8.41817 32775 ft 471 kts 109°
2026-05-06 10:29 52.17863 8.51896 32776 ft 472 kts 109°
2026-05-06 10:29 52.15754 8.62043 32773 ft 471 kts 109°
2026-05-06 10:30 52.13662 8.72059 32772 ft 470 kts 110°
2026-05-06 10:30 52.11551 8.82121 32772 ft 470 kts 110°
2026-05-06 10:31 52.09438 8.92135 32773 ft 470 kts 110°
2026-05-06 10:31 52.07314 9.02155 32767 ft 470 kts 110°
2026-05-06 10:32 52.05222 9.11978 32750 ft 449 kts 110°
2026-05-06 10:32 52.04225 9.16646 32747 ft 433 kts 110°
2026-05-06 10:32 52.03244 9.21229 32744 ft 421 kts 110°
2026-05-06 10:33 52.01330 9.30127 32710 ft 418 kts 110°
2026-05-06 10:33 52.00379 9.34538 32347 ft 416 kts 110°
2026-05-06 10:33 51.99423 9.38955 31825 ft 418 kts 110°
2026-05-06 10:34 51.98467 9.43367 31426 ft 417 kts 110°
2026-05-06 10:34 51.97511 9.47773 31085 ft 416 kts 109°
2026-05-06 10:34 51.96556 9.52160 30690 ft 415 kts 109°
2026-05-06 10:34 51.95593 9.56579 30165 ft 418 kts 109°
2026-05-06 10:35 51.94622 9.61026 29557 ft 422 kts 109°
2026-05-06 10:35 51.93643 9.65496 29062 ft 423 kts 110°
2026-05-06 10:35 51.92652 9.70015 28558 ft 425 kts 111°
2026-05-06 10:35 51.91672 9.74470 28036 ft 427 kts 111°
2026-05-06 10:36 51.90671 9.79016 27489 ft 430 kts 111°
2026-05-06 10:36 51.89661 9.83585 26952 ft 433 kts 111°
2026-05-06 10:36 51.88655 9.88128 26678 ft 429 kts 111°
2026-05-06 10:36 51.87651 9.92660 26325 ft 428 kts 111°
2026-05-06 10:37 51.86654 9.97141 26020 ft 427 kts 111°
2026-05-06 10:37 51.85646 10.01665 25676 ft 425 kts 111°
2026-05-06 10:37 51.84642 10.06166 25307 ft 425 kts 111°
2026-05-06 10:37 51.83654 10.10581 25037 ft 423 kts 111°
2026-05-06 10:38 51.82650 10.15056 24678 ft 423 kts 111°
2026-05-06 10:38 51.81647 10.19520 24378 ft 421 kts 111°
2026-05-06 10:38 51.80660 10.23902 24052 ft 421 kts 111°
2026-05-06 10:38 51.79653 10.28366 23738 ft 420 kts 111°
2026-05-06 10:39 51.78659 10.32761 23471 ft 419 kts 111°
2026-05-06 10:39 51.77660 10.37170 23151 ft 419 kts 112°
2026-05-06 10:39 51.76657 10.41586 22874 ft 418 kts 112°
2026-05-06 10:39 51.75673 10.45910 22582 ft 417 kts 112°
2026-05-06 10:40 51.74665 10.50328 22312 ft 416 kts 112°
2026-05-06 10:40 51.73675 10.54666 22039 ft 416 kts 112°
2026-05-06 10:40 51.72678 10.59019 21775 ft 415 kts 112°
2026-05-06 10:40 51.71675 10.63385 21540 ft 414 kts 112°
2026-05-06 10:41 51.70682 10.67710 21270 ft 413 kts 112°
2026-05-06 10:41 51.69688 10.72023 21031 ft 412 kts 112°
2026-05-06 10:41 51.68856 10.76395 20755 ft 414 kts 104°
2026-05-06 10:41 51.68522 10.81039 20496 ft 415 kts 92°
2026-05-06 10:42 51.68525 10.85623 20454 ft 403 kts 94°
2026-05-06 10:42 51.68395 10.89980 20431 ft 387 kts 95°
2026-05-06 10:42 51.68215 10.94251 20157 ft 379 kts 97°
2026-05-06 10:42 51.67989 10.98427 19702 ft 377 kts 97°
2026-05-06 10:43 51.67738 11.02622 19276 ft 374 kts 98°
2026-05-06 10:43 51.67475 11.06781 18862 ft 371 kts 98°
2026-05-06 10:43 51.67210 11.10837 18425 ft 369 kts 98°
2026-05-06 10:44 51.66662 11.19003 17620 ft 364 kts 98°
2026-05-06 10:44 51.66392 11.22964 17203 ft 361 kts 98°
2026-05-06 10:44 51.66115 11.27001 16821 ft 359 kts 98°
2026-05-06 10:44 51.65842 11.30941 16410 ft 358 kts 98°
2026-05-06 10:45 51.65567 11.34917 16042 ft 355 kts 98°
2026-05-06 10:45 51.65293 11.38820 15662 ft 354 kts 98°
2026-05-06 10:45 51.65017 11.42752 15294 ft 353 kts 98°
2026-05-06 10:45 51.64740 11.46673 14877 ft 352 kts 98°
2026-05-06 10:46 51.64465 11.50560 14523 ft 349 kts 98°
2026-05-06 10:46 51.64193 11.54384 14125 ft 349 kts 99°
2026-05-06 10:46 51.63916 11.58257 13777 ft 347 kts 98°
2026-05-06 10:46 51.63638 11.62120 13360 ft 345 kts 99°
2026-05-06 10:47 51.63361 11.65942 13021 ft 344 kts 99°
2026-05-06 10:47 51.63086 11.69736 12630 ft 342 kts 99°
2026-05-06 10:47 51.62810 11.73516 12249 ft 340 kts 99°
2026-05-06 10:47 51.62538 11.77224 11900 ft 338 kts 99°
2026-05-06 10:48 51.62265 11.80945 11536 ft 337 kts 99°
2026-05-06 10:48 51.61987 11.84701 11182 ft 335 kts 99°
2026-05-06 10:48 51.61715 11.88363 10783 ft 333 kts 99°
2026-05-06 10:48 51.61438 11.92076 10464 ft 332 kts 98°
2026-05-06 10:49 51.61166 11.95710 10083 ft 331 kts 98°
2026-05-06 10:49 51.60894 11.99337 9962 ft 317 kts 98°
2026-05-06 10:49 51.60637 12.02756 9832 ft 306 kts 99°
2026-05-06 10:49 51.60380 12.06139 9545 ft 305 kts 98°
2026-05-06 10:50 51.60122 12.09518 9221 ft 304 kts 98°
2026-05-06 10:50 51.59868 12.12848 8918 ft 302 kts 98°
2026-05-06 10:50 51.59611 12.16198 8586 ft 301 kts 98°
2026-05-06 10:50 51.59352 12.19548 8265 ft 300 kts 98°
2026-05-06 10:51 51.59098 12.22850 7958 ft 299 kts 98°
2026-05-06 10:51 51.58841 12.26163 7624 ft 298 kts 98°
2026-05-06 10:51 51.58585 12.29445 7302 ft 298 kts 98°
2026-05-06 10:51 51.58330 12.32705 6963 ft 298 kts 98°
2026-05-06 10:52 51.58070 12.36029 6772 ft 291 kts 98°
2026-05-06 10:52 51.57822 12.39187 6539 ft 287 kts 98°
2026-05-06 10:52 51.57571 12.42366 6320 ft 283 kts 98°
2026-05-06 10:52 51.57324 12.45476 6076 ft 282 kts 98°
2026-05-06 10:53 51.57077 12.48573 5756 ft 281 kts 98°
2026-05-06 10:53 51.56775 12.51655 5484 ft 278 kts 109°
2026-05-06 10:53 51.55848 12.54282 5156 ft 268 kts 139°
2026-05-06 10:53 51.54343 12.55749 5024 ft 245 kts 169°
2026-05-06 10:54 51.52713 12.56207 4752 ft 236 kts 176°
2026-05-06 10:54 51.51102 12.56464 4479 ft 228 kts 179°
2026-05-06 10:54 51.49566 12.56620 4311 ft 218 kts 180°
2026-05-06 10:54 51.48087 12.56708 4111 ft 211 kts 181°
2026-05-06 10:55 51.46651 12.56757 4009 ft 197 kts 182°
2026-05-06 10:55 51.45285 12.56700 3669 ft 199 kts 198°
2026-05-06 10:55 51.44146 12.55603 3399 ft 192 kts 230°
2026-05-06 10:55 51.43352 12.53984 3453 ft 175 kts 234°
2026-05-06 10:56 51.42722 12.52390 3407 ft 168 kts 255°
2026-05-06 10:56 51.42578 12.50564 3405 ft 170 kts 265°
2026-05-06 10:56 51.42469 12.48612 3242 ft 177 kts 264°
2026-05-06 10:56 51.42362 12.46676 3055 ft 174 kts 265°
2026-05-06 10:57 51.42269 12.44792 2963 ft 167 kts 265°
2026-05-06 10:57 51.42181 12.42945 2834 ft 172 kts 265°
2026-05-06 10:57 51.42089 12.40980 2420 ft 178 kts 266°
2026-05-06 10:57 51.42003 12.39081 2175 ft 163 kts 266°
2026-05-06 10:58 51.41926 12.37388 1987 ft 143 kts 268°
2026-05-06 10:58 51.41856 12.35849 1770 ft 140 kts 269°
2026-05-06 10:58 51.41788 12.34275 1602 ft 144 kts 268°
2026-05-06 10:58 51.41730 12.32645 1377 ft 149 kts 267°
2026-05-06 10:59 51.41650 12.31005 1161 ft 148 kts 266°
2026-05-06 10:59 51.41559 12.29384 939 ft 145 kts 268°
2026-05-06 10:59 51.41502 12.27782 737 ft 144 kts 268°
2026-05-06 10:59 51.41428 12.26185 563 ft 145 kts 266°
2026-05-06 11:00 51.41352 12.24588 456 ft 133 kts 267°
2026-05-06 11:00 51.41300 12.23491 464 ft 64 kts 265°
2026-05-06 11:00 51.41266 12.22840 469 ft 50 kts 251°
2026-05-06 11:00 51.41180 12.22543 468 ft 20 kts 231°
2026-05-06 11:01 51.41132 12.22513 468 ft 0 kts 150°
2026-05-06 11:01 51.41130 12.22514 468 ft 0 kts 157°
2026-05-06 11:01 51.41101 12.22549 470 ft 9 kts 121°
2026-05-06 11:01 51.41097 12.22706 472 ft 18 kts 88°
2026-05-06 11:02 51.41104 12.22929 472 ft 21 kts 85°
2026-05-06 11:02 51.41116 12.23162 471 ft 13 kts 84°
2026-05-06 11:02 51.41088 12.23267 469 ft 12 kts 138°
2026-05-06 11:02 51.41006 12.23282 468 ft 13 kts 188°
2026-05-06 11:03 51.40902 12.23288 466 ft 8 kts 173°
2026-05-06 11:03 51.40889 12.23326 465 ft 4 kts 91°
2026-05-06 11:03 51.40890 12.23387 464 ft 4 kts 85°
2026-05-06 11:03 51.40891 12.23394 464 ft 0 kts 85°